{"data":{"norad_id":43275,"epoch":"2026-05-25T04:06:41.023296Z","epoch_age_seconds":70827,"freshness":"FRESH","line1":"1 43275U 18034A   26145.17130814 -.00000189  00000+0 -13234-3 0  9995","line2":"2 43275  63.3927 150.5025 0273418   7.3230 353.1665 13.45458322399008","mean_motion":13.45458322,"eccentricity":0.0273418,"inclination_deg":63.3927,"raan_deg":150.5025,"arg_perigee_deg":7.323,"mean_anomaly_deg":353.1665,"bstar":-0.00013234,"rev_number":39900,"period_min":107.02672661458,"perigee_km":884.84990188489,"apogee_km":1293.1806706461,"semimajor_km":7467.1522862655,"source":"CELESTRAK","updated_at":"2026-05-25T13:37:55.823554Z"}}